Change the Weather History Date:

Friday, September 13, 2013

  Actual Average (KVPZ) Record (KVPZ)
Temperature  
Mean Temperature 52 °F 65 °F  
Max Temperature 96 °F 76 °F 92 °F (2005)
Min Temperature 41 °F 54 °F 41 °F (2014)
Degree Days  
Heating Degree Days 12 3  
Month to date heating degree days 22  
Since 1 July heating degree days 39  
Cooling Degree Days 0 2  
Month to date cooling degree days 43  
Year to date cooling degree days 679  
Growing Degree Days 2 (Base 50)    
Moisture  
Dew Point 45 °F    
Average Humidity 69    
Maximum Humidity 96    
Minimum Humidity 45    
Precipitation  
Precipitation 0.00 in 0.09 in 2.70 in (2008)
Month to date precipitation 1.54  
Year to date precipitation 27.08  
Sea Level Pressure  
Sea Level Pressure 30.11 in    
Wind  
Wind Speed 8 mph (NNE)    
Max Wind Speed 18 mph    
Max Gust Speed 26 mph    
Visibility 10 miles    
Events      
T = Trace of Precipitation, MM = Missing Value Source: NWS Daily Summary

Daily Weather History Graph

Daily Weather History Graph

Search for Another Location

Airport or City:

Trip Planner

Search our weather history database for the weather conditions in past years. The results will help you decide how hot, cold, wet, or windy it might be!

Date:

Astronomy

Sep. 13, 2013 Rise Set
Actual Time 6:25 AM CDT 6:58 PM CDT
Civil Twilight 5:57 AM CDT 7:26 PM CDT
Nautical Twilight 5:24 AM CDT 7:59 PM CDT
Astronomical Twilight 4:50 AM CDT 8:33 PM CDT
Moon 2:51 PM CDT (9/13) No Moon Set
Length of Visible Light 13h 29m
Length of Day
12h 33m
First Quarter, 61% of the Moon is Illuminated
Sep 13
First Quarter
Sep 19
Full
Sep 26
Last Quarter
Oct 4
New
Oct 11
First Quarter

Hourly Weather History & Observations

Time (CDT) Temp. Dew Point Humidity Pressure Visibility Wind Dir Wind Speed Gust Speed Precip Events Conditions
12:15 AM 57.4 °F 52.5 °F 84% 30.05 in 10.0 mi NNE 5.8 mph - N/A   Clear
12:35 AM 56.3 °F 51.8 °F 85% 30.05 in 10.0 mi ENE 4.6 mph - N/A   Clear
12:55 AM 56.1 °F 51.3 °F 84% 30.06 in 10.0 mi NNE 9.2 mph - N/A   Clear
1:15 AM 55.9 °F 50.5 °F 82% 30.06 in 10.0 mi NNE 8.1 mph - N/A   Clear
1:35 AM 55.9 °F 50.2 °F 81% 30.07 in 10.0 mi NNE 8.1 mph - N/A   Mostly Cloudy
1:55 AM 56.1 °F 50.0 °F 80% 30.07 in 10.0 mi NNE 5.8 mph - N/A   Mostly Cloudy
2:15 AM 56.1 °F 49.6 °F 79% 30.07 in 10.0 mi NE 8.1 mph - N/A   Mostly Cloudy
2:35 AM 55.2 °F 49.1 °F 80% 30.07 in 10.0 mi NE 6.9 mph - N/A   Scattered Clouds
2:55 AM 54.0 °F 48.2 °F 81% 30.07 in 10.0 mi NE 4.6 mph - N/A   Scattered Clouds
3:15 AM 53.2 °F 48.2 °F 83% 30.07 in 10.0 mi NE 5.8 mph - N/A   Mostly Cloudy
3:35 AM 52.7 °F 47.8 °F 84% 30.07 in 10.0 mi NNE 4.6 mph - N/A   Scattered Clouds
3:55 AM 52.3 °F 47.3 °F 83% 30.07 in 10.0 mi NNE 5.8 mph - N/A   Scattered Clouds
4:15 AM 52.7 °F 47.5 °F 82% 30.07 in 10.0 mi NNE 4.6 mph - N/A   Mostly Cloudy
4:35 AM 52.2 °F 47.3 °F 83% 30.08 in 10.0 mi NNE 5.8 mph - N/A   Mostly Cloudy
4:55 AM 52.9 °F 47.5 °F 82% 30.07 in 10.0 mi NNE 5.8 mph - N/A   Overcast
5:15 AM 51.4 °F 46.9 °F 85% 30.08 in 10.0 mi NNE 3.5 mph - N/A   Mostly Cloudy
5:35 AM 50.7 °F 47.5 °F 89% 30.08 in 10.0 mi Calm Calm - N/A   Mostly Cloudy
5:55 AM 50.7 °F 46.9 °F 87% 30.08 in 10.0 mi NNE 4.6 mph - N/A   Mostly Cloudy
6:15 AM 50.9 °F 46.0 °F 83% 30.09 in 10.0 mi NNE 8.1 mph - N/A   Mostly Cloudy
6:35 AM 52.5 °F 45.3 °F 76% 30.10 in 10.0 mi NNE 6.9 mph - N/A   Overcast
6:55 AM 52.9 °F 44.4 °F 73% 30.11 in 10.0 mi NNE 10.4 mph - N/A   Overcast
7:15 AM 52.9 °F 44.1 °F 72% 30.11 in 10.0 mi NNE 8.1 mph - N/A   Overcast
7:35 AM 52.9 °F 44.2 °F 72% 30.11 in 10.0 mi NNE 6.9 mph - N/A   Overcast
7:55 AM 53.4 °F 44.2 °F 71% 30.11 in 10.0 mi NNE 5.8 mph - N/A   Overcast
8:15 AM 53.6 °F 44.8 °F 72% 30.12 in 10.0 mi NNE 4.6 mph - N/A   Overcast
8:35 AM 54.1 °F 45.0 °F 71% 30.12 in 10.0 mi North 8.1 mph - N/A   Overcast
8:55 AM 54.7 °F 44.4 °F 68% 30.12 in 10.0 mi NNE 10.4 mph - N/A   Overcast
9:15 AM 55.4 °F 44.1 °F 66% 30.13 in 10.0 mi NNE 9.2 mph - N/A   Overcast
9:35 AM 56.1 °F 44.1 °F 64% 30.13 in 10.0 mi NNE 11.5 mph 18.4 mph N/A   Overcast
9:55 AM 57.2 °F 44.6 °F 63% 30.13 in 10.0 mi NNE 8.1 mph - N/A   Mostly Cloudy
10:15 AM 60.1 °F 44.4 °F 56% 30.13 in 10.0 mi NE 11.5 mph - N/A   Mostly Cloudy
10:35 AM 59.9 °F 44.2 °F 56% 30.13 in 10.0 mi NNE 15.0 mph - N/A   Overcast
10:55 AM 61.2 °F 43.9 °F 53% 30.13 in 10.0 mi NE 11.5 mph - N/A   Mostly Cloudy
11:15 AM 62.6 °F 43.7 °F 50% 30.14 in 10.0 mi NNE 12.7 mph 19.6 mph N/A   Mostly Cloudy
11:35 AM 62.4 °F 44.1 °F 51% 30.14 in 10.0 mi North 12.7 mph 17.3 mph N/A   Overcast
11:55 AM 62.2 °F 44.4 °F 52% 30.14 in 10.0 mi North 12.7 mph - N/A   Mostly Cloudy
12:15 PM 63.0 °F 43.7 °F 49% 30.13 in 10.0 mi North 13.8 mph - N/A   Mostly Cloudy
12:35 PM 63.7 °F 43.3 °F 48% 30.13 in 10.0 mi North 17.3 mph 23.0 mph N/A   Mostly Cloudy
12:55 PM 63.7 °F 43.7 °F 48% 30.12 in 10.0 mi North 15.0 mph 20.7 mph N/A   Scattered Clouds
1:15 PM 64.0 °F 44.1 °F 48% 30.12 in 10.0 mi NNW 15.0 mph 20.7 mph N/A   Scattered Clouds
1:35 PM 63.0 °F 43.7 °F 49% 30.12 in 10.0 mi North 16.1 mph 21.9 mph N/A   Mostly Cloudy
1:55 PM 63.0 °F 43.3 °F 49% 30.11 in 10.0 mi North 15.0 mph 23.0 mph N/A   Scattered Clouds
2:15 PM 63.9 °F 42.3 °F 45% 30.11 in 10.0 mi North 12.7 mph 26.5 mph N/A   Scattered Clouds
2:35 PM 64.8 °F 43.7 °F 46% 30.11 in 10.0 mi North 15.0 mph 24.2 mph N/A   Scattered Clouds
2:55 PM 64.4 °F 43.2 °F 46% 30.11 in 10.0 mi North 15.0 mph 23.0 mph N/A   Scattered Clouds
3:15 PM 63.7 °F 41.7 °F 45% 30.10 in 10.0 mi NNW 18.4 mph 23.0 mph N/A   Scattered Clouds
3:35 PM 63.1 °F 41.7 °F 46% 30.10 in 10.0 mi NNW 18.4 mph 25.3 mph N/A   Scattered Clouds
3:55 PM 62.6 °F 42.1 °F 47% 30.10 in 10.0 mi North 18.4 mph 25.3 mph N/A   Clear
4:15 PM 62.4 °F 42.3 °F 48% 30.10 in 10.0 mi North 15.0 mph 23.0 mph N/A   Clear
4:35 PM 62.1 °F 42.6 °F 49% 30.10 in 10.0 mi North 15.0 mph 23.0 mph N/A   Clear
4:55 PM 61.7 °F 42.1 °F 49% 30.11 in 10.0 mi North 12.7 mph 21.9 mph N/A   Clear
5:15 PM 61.0 °F 41.9 °F 49% 30.11 in 10.0 mi North 15.0 mph - N/A   Clear
5:35 PM 60.3 °F 41.9 °F 51% 30.11 in 10.0 mi North 11.5 mph - N/A   Clear
5:55 PM 59.5 °F 41.5 °F 51% 30.12 in 10.0 mi North 13.8 mph - N/A   Clear
6:15 PM 58.6 °F 40.5 °F 51% 30.12 in 10.0 mi North 11.5 mph - N/A   Clear
6:35 PM 57.6 °F 40.8 °F 54% 30.12 in 10.0 mi North 10.4 mph - N/A   Clear
6:55 PM 55.6 °F 41.5 °F 59% 30.12 in 10.0 mi North 6.9 mph - N/A   Clear
7:15 PM 53.2 °F 42.1 °F 66% 30.13 in 10.0 mi North 6.9 mph - N/A   Clear
7:35 PM 51.3 °F 42.3 °F 71% 30.13 in 10.0 mi North 6.9 mph - N/A   Clear
7:55 PM 49.8 °F 42.6 °F 76% 30.13 in 10.0 mi North 5.8 mph - N/A   Clear
8:15 PM 48.6 °F 43.7 °F 83% 30.14 in 10.0 mi North 3.5 mph - N/A   Clear
8:35 PM 48.7 °F 45.1 °F 87% 30.14 in 10.0 mi North 3.5 mph - N/A   Clear
8:55 PM 48.0 °F 45.0 °F 89% 30.15 in 10.0 mi North 3.5 mph - N/A   Clear
9:15 PM 46.4 °F 43.7 °F 90% 30.14 in 10.0 mi Calm Calm - N/A   Clear
9:35 PM 47.1 °F 45.0 °F 92% 30.14 in 10.0 mi NNE 3.5 mph - N/A   Clear
9:55 PM 46.4 °F 44.4 °F 93% 30.14 in 10.0 mi Calm Calm - N/A   Clear
10:15 PM 46.0 °F 43.7 °F 92% 30.14 in 10.0 mi Calm Calm - N/A   Clear
10:35 PM 44.2 °F 42.1 °F 92% 30.14 in 10.0 mi Calm Calm - N/A   Clear
10:55 PM 43.3 °F 42.1 °F 95% 30.14 in 10.0 mi Calm Calm - N/A   Clear
11:15 PM 42.3 °F 40.8 °F 95% 30.14 in 10.0 mi Calm Calm - N/A   Clear
11:35 PM 41.7 °F 40.6 °F 96% 30.14 in 10.0 mi Calm Calm - N/A   Clear
11:55 PM 42.3 °F 41.2 °F 96% 30.14 in 10.0 mi Calm Calm - N/A   Clear